This is the latest recevied weather packets stored in our database for station/object WY7EM. If no packets are shown the sender has not sent any weather packets the latest 1 day(s).
| Time | Temp. | Humidity | Pressure | Rain* | Wind** | Luminosity | Snow |
|---|---|---|---|---|---|---|---|
| 1836274582 | 21.67° C | 54% | 1018.5 hPa | 0 mm | 0 m/s | 0 W/m² | - |
| 1836274436 | 21.67° C | 55% | 1018.5 hPa | 0 mm | 0 m/s | 0 W/m² | - |
| 1836274281 | 22.22° C | 54% | 1018.5 hPa | 0 mm | 0 m/s | 0 W/m² | - |
| 1836274134 | 21.67° C | 54% | 1018.3 hPa | 0 mm | 0 m/s | 0 W/m² | - |
| 1836273980 | 22.22° C | 53% | 1018.3 hPa | 0 mm | 0.45 m/s, 48° | 0 W/m² | - |
| 1778051375 | 16.11° C | 29% | 1010.8 hPa | 0 mm | 1.79 m/s, 272° | 0 W/m² | - |
| 1778051072 | 16.11° C | 29% | 1010.8 hPa | 0 mm | 1.34 m/s, 34° | 0 W/m² | - |
| 1778050770 | 16.11° C | 29% | 1010.7 hPa | 0 mm | 3.58 m/s, 208° | 0 W/m² | - |
| 1778050467 | 16.11° C | 29% | 1010.5 hPa | 0 mm | 3.13 m/s, 171° | 0 W/m² | - |
| 1778050163 | 16.11° C | 29% | 1010.8 hPa | 0 mm | 4.02 m/s, 291° | 0 W/m² | - |
| 1778049859 | 16.11° C | 29% | 1010.6 hPa | 0 mm | 1.79 m/s, 287° | 0 W/m² | - |
| 1778049556 | 16.67° C | 28% | 1010.6 hPa | 0 mm | 2.24 m/s, 242° | 0 W/m² | - |
| 1778049254 | 16.67° C | 28% | 1010.5 hPa | 0 mm | 4.02 m/s, 165° | 0 W/m² | - |
| 1778048952 | 16.67° C | 28% | 1010.5 hPa | 0 mm | 2.24 m/s, 257° | 0 W/m² | - |
| 1778048650 | 16.67° C | 28% | 1010.4 hPa | 0 mm | 1.79 m/s, 219° | 0 W/m² | - |
| 1778048346 | 16.67° C | 28% | 1010.3 hPa | 0 mm | 2.68 m/s, 266° | 0 W/m² | - |
| 1778048042 | 16.67° C | 28% | 1010.3 hPa | 0 mm | 2.24 m/s, 261° | 0 W/m² | - |
| 1778047740 | 16.67° C | 28% | 1010.3 hPa | 0 mm | 1.79 m/s, 246° | 0 W/m² | - |
| 1778047438 | 16.67° C | 27% | 1010.4 hPa | 0 mm | 1.79 m/s, 173° | 0 W/m² | - |
| 1778047135 | 16.67° C | 28% | 1010.1 hPa | 0 mm | 2.68 m/s, 204° | 0 W/m² | - |
| 1778046832 | 16.67° C | 28% | 1010.2 hPa | 0 mm | 4.02 m/s, 249° | 0 W/m² | - |
| 1778046529 | 17.22° C | 28% | 1010.1 hPa | 0 mm | 1.79 m/s, 196° | 0 W/m² | - |
| 1778046226 | 17.22° C | 28% | 1010.1 hPa | 0 mm | 4.02 m/s, 244° | 0 W/m² | - |
| 1778045922 | 17.22° C | 28% | 1010.1 hPa | 0 mm | 2.24 m/s, 331° | 0 W/m² | - |
| 1778045620 | 17.22° C | 28% | 1010.1 hPa | 0 mm | 3.13 m/s, 232° | 0 W/m² | - |
* Rain latest hour (hover to see other rain measurements)
** Current wind speed in m/s (hover to see current wind gust speed)